Home   Weather   Changchun   Past weeks

Flag for China Past Weather in Changchun, Jilin, China — Yesterday and Last 2 Weeks

Now
72 °F

Passing clouds.


Feels Like: 72 °F
Forecast: 54 / 82 °F
Wind: 10 mph from Southwest

Location: Changchun Airport

Current Time: May 1, 2017 at 12:37:53 pm

Latest Report: May 1, 2017 at 12:00 pm


Visibility: N/A

Pressure: 30.04 "Hg

Humidity: 10%

Dew Point: 12 °F

Location of ChangchunLocation

Past Weather in Changchun — Graph

°F

Changchun Temperature Yesterday

Maximum temperature yesterday: 63 °F (at 3:00 pm)
Minimum temperature yesterday: 43 °F (at 4:00 am)
Average temperature yesterday: 53 °F

High & Low Weather Summary for the Past Weeks

 TemperatureHumidityPressure
High82 °F (Apr 29, 3:00 pm)87% (Apr 20, 1:00 pm)30.09 "Hg (Apr 20, 1:00 pm)
Low32 °F (Apr 21, 4:00 am)6% (Apr 29, 5:00 pm)29.18 "Hg (Apr 29, 3:00 pm)
Average51 °F42%29.74 "Hg
* Reported Apr 16 10:00 am — May 1 10:00 am, Changchun, Weather by CustomWeather, © 2017

Note: Actual official high and low records may vary slightly from our data, if they occured in-between our weather recording intervals... More about our weather records

Advertising

Changchun Weather History for the Previous 24 Hours

Scroll right to see more
 ConditionsComfort  
Time TempWeatherWind HumidityBarometerVisibility
10:00 am
Mon, May 1
66 °FPassing clouds.8 mph15%30.07 "HgN/A
9:00 am63 °FPassing clouds.6 mph20%30.09 "HgN/A
8:00 am59 °FSunny.6 mph34%30.09 "Hg10 mi
7:00 am52 °FSunny.3 mph47%30.09 "Hg10 mi
6:00 am45 °FSunny.3 mph61%30.07 "Hg10 mi
5:00 am39 °FSunny.3 mph61%30.07 "Hg10 mi
4:00 am39 °FClear.1 mph56%30.04 "Hg10 mi
3:00 am39 °FClear.6 mph56%30.04 "Hg10 mi
2:00 am39 °FClear.3 mph52%30.04 "Hg10 mi
1:00 am41 °FClear.1 mph57%30.01 "Hg10 mi
12:00 am43 °FClear.No wind49%30.01 "Hg10 mi
11:00 pm
Sun, Apr 30
45 °FClear.1 mph46%29.98 "Hg10 mi
10:00 pm46 °FClear.1 mph43%29.98 "Hg10 mi
9:00 pm48 °FClear.3 mph37%29.98 "Hg10 mi
8:00 pm52 °FClear.1 mph32%29.95 "Hg10 mi
7:00 pm55 °FPassing clouds.3 mph28%29.92 "HgN/A
6:00 pm61 °FPassing clouds.6 mph23%29.92 "HgN/A
5:00 pm61 °FScattered clouds.6 mph23%29.89 "HgN/A
4:00 pm61 °FScattered clouds.8 mph23%29.89 "HgN/A
3:00 pm63 °FScattered clouds.8 mph24%29.89 "HgN/A
2:00 pm61 °FScattered clouds.6 mph25%29.86 "HgN/A
1:00 pm59 °FPartly sunny.8 mph27%29.86 "HgN/A
12:00 pm59 °FPartly sunny.10 mph29%29.86 "HgN/A
Weather by CustomWeather, © 2017

See weather overviewHow to use our weather pages